Deer Park, WA
on Thursday, December 6, 2012

Thursday
Previous Day Next Day
Daily Summary
 ActualAverageRecord
Temperature
Mean Temperature °F 27°F  
Max Temperature 35°F 33°F 47°F (2011)
Min Temperature 28°F 21°F 3°F (2005)
Degree Days
Heating Degree Days 33 38  
Month to date heating degree days 148 225  
Since 1 July heating degree days 1885 2228  
Cooling Degree Days 0 0  
Month to date cooling degree days 0 0  
Year to date cooling degree days 232 187  
Moisture
Dew Point 31°F   
Average Humidity 88    
Maximum Humidity 100    
Minimum Humidity 75    
Precipitation
Precipitation 0.06 in 0.09 in 0.31 in (2014)
Month to date precipitation 1.18 0.52  
Year to date precipitation 25.29 19.91  
Wind
Wind Speed 5 mph   
Max Wind Speed 10 mph   
Max Gust Speed 13 mph   
Visibility 5 miles   
Events Snow   

Key: T is trace of precipitation, MM is missing value
Source: NWS Daily Summary
Time(PST)TemperatureDew PointHumidity Pressure Visibility Wind DirectionWind SpeedGust SpeedPrecipitationEvents Conditions
12:53 AM 33.1°F 27.0°F 78% 30.15 in 10.0 miles South 5.8 mph - N/A   Overcast
1:53 AM 33.1°F 28.0°F 82% 30.16 in 10.0 miles Calm Calm - N/A   Overcast
2:53 AM 32.0°F 27.0°F 82% 30.16 in 10.0 miles South 4.6 mph - N/A   Overcast
3:53 AM 30.0°F 27.0°F 88% 30.15 in 10.0 miles SSE 4.6 mph - N/A   Overcast
4:53 AM 28.0°F 27.0°F 96% 30.15 in 10.0 miles Calm Calm - N/A   Overcast
5:53 AM 30.9°F 28.9°F 92% 30.14 in 10.0 miles South 4.6 mph - N/A   Overcast
6:15 AM 32.0°F 28.4°F 87% 30.08 in 10.0 miles SSE 4.6 mph - N/A   Overcast
6:42 AM 32.0°F 30.2°F 93% 30.08 in 10.0 miles SSE 4.6 mph - N/A   Overcast
6:53 AM 32.0°F 28.9°F 88% 30.13 in 10.0 miles SE 6.9 mph - N/A   Overcast
7:53 AM 32.0°F 28.9°F 88% 30.12 in 10.0 miles SSE 4.6 mph - N/A   Overcast
8:53 AM 33.1°F 30.0°F 89% 30.13 in 10.0 miles South 4.6 mph - N/A   Overcast
9:53 AM 33.1°F 30.0°F 89% 30.13 in 10.0 miles South 6.9 mph - N/A   Overcast
10:40 AM 33.8°F 30.2°F 87% 30.06 in 1.8 miles South 9.2 mph - 0.00 in Snow Light Snow
10:51 AM 33.8°F 30.2°F 87% 30.06 in 2.0 miles South 6.9 mph - 0.00 in Snow Light Snow
10:53 AM 33.1°F 30.9°F 92% 30.12 in 2.0 miles South 6.9 mph - 0.00 in Snow Light Snow
11:05 AM 33.8°F 30.2°F 87% 30.05 in 1.5 miles South 6.9 mph - 0.00 in Snow Light Snow
11:38 AM 33.8°F 32.0°F 93% 30.04 in 2.5 miles SSE 5.8 mph - 0.00 in Snow Light Snow
11:50 AM 33.8°F 32.0°F 93% 30.03 in 2.5 miles South 4.6 mph - 0.00 in Snow Light Snow
11:53 AM 33.1°F 32.0°F 96% 30.09 in 2.5 miles South 5.8 mph - 0.00 in Snow Light Snow
12:03 PM 33.8°F 32.0°F 93% 30.03 in 1.2 miles South 6.9 mph - 0.00 in Snow Light Snow
12:20 PM 33.8°F 32.0°F 93% 30.03 in 0.8 miles South 6.9 mph - 0.01 in Snow Light Snow
12:27 PM 33.8°F 32.0°F 93% 30.03 in 1.0 miles South 6.9 mph - 0.01 in Snow Light Snow
12:36 PM 33.8°F 32.0°F 93% 30.02 in 1.5 miles South 5.8 mph - 0.01 in Snow Light Snow
12:43 PM 33.8°F 32.0°F 93% 30.02 in 2.0 miles South 4.6 mph - 0.01 in Snow Light Snow
12:53 PM 33.1°F 32.0°F 96% 30.08 in 2.5 miles South 5.8 mph - 0.01 in Snow Light Snow
12:59 PM 33.8°F 32.0°F 93% 30.01 in 1.8 miles South 5.8 mph - 0.00 in Snow Light Snow
1:23 PM 33.8°F 33.8°F 100% 30.00 in 3.0 miles South 4.6 mph - 0.00 in Snow Light Snow
1:31 PM 33.8°F 33.8°F 100% 30.00 in 4.0 miles South 5.8 mph - 0.00 in Snow Light Snow
1:40 PM 33.8°F 33.8°F 100% 29.99 in 2.5 miles South 5.8 mph - 0.00 in Snow Light Snow
1:48 PM 33.8°F 33.8°F 100% 29.99 in 2.5 miles South 5.8 mph - 0.00 in Snow Light Snow
1:53 PM 33.1°F 33.1°F 100% 30.05 in 2.0 miles SSE 5.8 mph - 0.00 in Snow Light Snow
2:12 PM 33.8°F 33.8°F 100% 29.98 in 3.0 miles SSE 5.8 mph - 0.00 in Snow Light Snow
2:19 PM 33.8°F 33.8°F 100% 29.98 in 2.5 miles SE 5.8 mph - 0.00 in Snow Light Snow
2:42 PM 33.8°F 33.8°F 100% 29.97 in 3.0 miles SE 5.8 mph - 0.01 in Snow Light Snow
2:53 PM 33.1°F 33.1°F 100% 30.03 in 4.0 miles SSE 5.8 mph - 0.01 in Snow Light Snow
3:14 PM 33.8°F 33.8°F 100% 29.97 in 4.0 miles SSE 6.9 mph - 0.00 in   Overcast
3:25 PM 33.8°F 33.8°F 100% 29.97 in 1.8 miles South 6.9 mph - 0.00 in Snow Light Snow
3:53 PM 33.1°F 33.1°F 100% 30.02 in 3.0 miles SSE 5.8 mph - 0.00 in Snow Light Snow
4:07 PM 33.8°F 33.8°F 100% 29.96 in 2.0 miles SSE 4.6 mph - 0.01 in Snow Light Snow
4:28 PM 33.8°F 32.0°F 93% 29.96 in 1.5 miles SSE 5.8 mph - 0.02 in Snow Light Snow
4:46 PM 32.0°F 32.0°F 100% 29.95 in 1.2 miles South 5.8 mph - 0.03 in Snow Light Snow
4:53 PM 32.0°F 32.0°F 100% 30.02 in 1.2 miles South 5.8 mph - 0.03 in Snow Light Snow
5:25 PM 32.0°F 32.0°F 100% 29.94 in 2.5 miles SSE 4.6 mph - 0.01 in Snow Light Snow
5:36 PM 32.0°F 32.0°F 100% 29.94 in 3.0 miles SE 3.5 mph - 0.01 in Snow Light Snow
5:53 PM 32.0°F 32.0°F 100% 30.00 in 7.0 miles SE 3.5 mph - 0.01 in   Overcast
6:02 PM 33.8°F 32.0°F 93% 29.94 in 8.0 miles SE 4.6 mph - N/A   Overcast
6:53 PM 34.0°F 33.1°F 96% 30.00 in 10.0 miles SSW 8.1 mph - N/A   Overcast
7:45 PM 35.6°F 33.8°F 93% 29.95 in 10.0 miles SW 5.8 mph - N/A   Overcast
7:53 PM 34.0°F 33.1°F 96% 30.01 in 10.0 miles SW 5.8 mph - N/A   Overcast
8:53 PM 35.1°F 33.1°F 92% 30.00 in 10.0 miles SSW 8.1 mph - N/A   Overcast
9:21 PM 33.8°F 32.0°F 93% 29.94 in 10.0 miles South 9.2 mph - N/A   Mostly Cloudy
9:53 PM 34.0°F 32.0°F 92% 30.00 in 10.0 miles South 6.9 mph - N/A   Clear
10:53 PM 32.0°F 30.9°F 96% 30.01 in 10.0 miles South 3.5 mph - N/A   Partly Cloudy
11:53 PM 28.9°F 28.0°F 96% 30.03 in 10.0 miles SE 3.5 mph - N/A   Mostly Cloudy
Moon Phase
Dec. 06 Dec. 13 Dec. 20 Dec. 28 Jan. 04
Sunrise:07:24 AM (PST) Moon Rise:No Moon Rise/
Sunset:03:57 PM (PST) Moon Set:11:53 AM (PST)12/6

Copyright © 2014 The Weather Underground, Inc.